Weather History for Carmi, IL

Change the Weather History Date:

Tuesday, April 1, 2014

  Actual Average (KEVV) Record (KEVV)
Temperature  
Mean Temperature 61 °F 51 °F  
Max Temperature 70 °F 63 °F 86 °F (2012)
Min Temperature 52 °F 40 °F 24 °F (1923)
Degree Days  
Heating Degree Days 4 14  
Month to date heating degree days 14  
Since 1 July heating degree days 4180  
Cooling Degree Days 0 0  
Month to date cooling degree days 0  
Year to date cooling degree days 3  
Growing Degree Days 11 (Base 50)    
Moisture  
Dew Point 44 °F    
Average Humidity 56    
Maximum Humidity 77    
Minimum Humidity 28    
Precipitation  
Precipitation 0.00 in 0.14 in 2.54 in (1917)
Month to date precipitation 0.14  
Year to date precipitation 10.65  
Snow  
Snow 0.00 in 0.00 in 0.10 in (1962)
Month to date snowfall 0.0  
Since 1 July snowfall 11.7  
Snow Depth -    
Sea Level Pressure  
Sea Level Pressure 30.00 in    
Wind  
Wind Speed 10 mph (West)    
Max Wind Speed 15 mph    
Max Gust Speed 23 mph    
Visibility 10 miles    
Events Rain    
T = Trace of Precipitation, MM = Missing Value Source: NWS Daily Summary

Daily Weather History Graph

Daily Weather History Graph

Search for Another Location

Airport:

Trip Planner

Search our weather history database for the weather conditions in past years. The results will help you decide how hot, cold, wet, or windy it might be!

Date:

Astronomy

Apr. 01, 2014 Rise Set
Actual Time 6:37 AM CDT 7:15 PM CDT
Civil Twilight 6:11 AM CDT 7:42 PM CDT
Nautical Twilight 5:39 AM CDT 8:13 PM CDT
Astronomical Twilight 5:07 AM CDT 8:45 PM CDT
Moon 7:41 AM CDT (4/1) 9:35 PM CDT (4/1)
Length of Visible Light 13h 31m
Length of Day
12h 38m
Waxing Crescent, 5% of the Moon is Illuminated
Apr 1
Waxing Crescent
Apr 7
First Quarter
Apr 15
Full
Apr 22
Last Quarter
Apr 29
New

Hourly Weather History & Observations

Time (CDT) Temp. Dew Point Humidity Pressure Visibility Wind Dir Wind Speed Gust Speed Precip Events Conditions
12:15 AM 60.8 °F 44.6 °F 55% 29.91 in 10.0 mi South 10.4 mph - N/A   Overcast
12:35 AM 62.6 °F 43.7 °F 50% 29.92 in 10.0 mi SSW 10.4 mph 16.1 mph N/A   Overcast
1:15 AM 64.4 °F 43.2 °F 46% 29.92 in 10.0 mi SSW 15.0 mph 19.6 mph N/A   Mostly Cloudy
1:35 AM 64.0 °F 43.5 °F 47% 29.92 in 10.0 mi SW 15.0 mph 23.0 mph N/A   Scattered Clouds
1:55 AM 64.0 °F 44.1 °F 48% 29.93 in 10.0 mi SW 15.0 mph - N/A   Scattered Clouds
2:15 AM 63.9 °F 44.6 °F 50% 29.93 in 10.0 mi SW 15.0 mph 23.0 mph N/A   Scattered Clouds
2:35 AM 62.6 °F 45.0 °F 52% 29.93 in 10.0 mi SW 11.5 mph - N/A   Clear
2:55 AM 61.7 °F 45.5 °F 55% 29.93 in 10.0 mi SW 10.4 mph - N/A   Clear
3:15 AM 61.2 °F 45.9 °F 57% 29.93 in 10.0 mi SW 11.5 mph - N/A   Clear
3:35 AM 60.8 °F 46.4 °F 59% 29.93 in 10.0 mi SW 10.4 mph - N/A   Clear
3:55 AM 59.7 °F 46.9 °F 63% 29.93 in 10.0 mi SW 10.4 mph - N/A   Clear
4:15 AM 59.0 °F 47.5 °F 66% 29.92 in 10.0 mi SSW 9.2 mph - N/A   Clear
4:35 AM 59.4 °F 48.0 °F 66% 29.92 in 10.0 mi SSW 9.2 mph - N/A   Clear
4:55 AM 57.9 °F 47.3 °F 68% 29.93 in 10.0 mi SSW 8.1 mph - N/A   Clear
5:15 AM 57.4 °F 47.3 °F 69% 29.93 in 10.0 mi SSW 11.5 mph - N/A   Clear
5:35 AM 57.6 °F 47.5 °F 69% 29.93 in 10.0 mi SSW 11.5 mph - N/A   Clear
5:55 AM 57.2 °F 47.5 °F 70% 29.94 in 10.0 mi SW 10.4 mph - N/A   Clear
6:10 AM 56.3 °F 47.5 °F 72% 29.95 in 10.0 mi SW 9.2 mph - N/A   Clear
6:35 AM 55.4 °F 47.5 °F 75% 29.96 in 10.0 mi SW 9.2 mph - N/A   Clear
6:55 AM 55.0 °F 47.8 °F 77% 29.97 in 10.0 mi SW 10.4 mph - N/A   Clear
7:15 AM 55.4 °F 48.2 °F 77% 29.98 in 10.0 mi SW 8.1 mph - N/A   Clear
7:35 AM 56.3 °F 48.7 °F 76% 30.00 in 10.0 mi SW 9.2 mph - N/A   Clear
7:55 AM 58.1 °F 49.1 °F 72% 30.00 in 10.0 mi SW 10.4 mph - N/A   Clear
8:15 AM 59.7 °F 49.1 °F 68% 30.01 in 10.0 mi WSW 15.0 mph - N/A   Clear
8:35 AM 60.4 °F 48.6 °F 65% 30.01 in 10.0 mi WSW 13.8 mph - N/A   Clear
8:55 AM 61.2 °F 48.0 °F 62% 30.02 in 10.0 mi West 12.7 mph - N/A   Clear
9:15 AM 62.2 °F 47.1 °F 58% 30.02 in 10.0 mi West 15.0 mph - N/A   Clear
9:35 AM 62.6 °F 46.2 °F 55% 30.03 in 10.0 mi WSW 12.7 mph 17.3 mph N/A   Clear
9:55 AM 63.0 °F 46.6 °F 55% 30.03 in 10.0 mi West 11.5 mph - N/A   Clear
10:15 AM 62.8 °F 45.3 °F 53% 30.04 in 10.0 mi WNW 11.5 mph 17.3 mph N/A   Clear
10:35 AM 63.7 °F 45.3 °F 51% 30.05 in 7.0 mi West 15.0 mph - N/A   Clear
10:55 AM 64.4 °F 40.3 °F 41% 30.05 in 10.0 mi West 13.8 mph 19.6 mph N/A   Clear
11:15 AM 65.1 °F 40.1 °F 40% 30.06 in 7.0 mi West 12.7 mph 18.4 mph N/A   Clear
11:35 AM 65.1 °F 39.0 °F 38% 30.05 in 10.0 mi West 10.4 mph - N/A   Clear
11:55 AM 65.7 °F 38.5 °F 37% 30.05 in 10.0 mi West 6.9 mph - N/A   Clear
12:15 PM 66.7 °F 38.5 °F 35% 30.05 in 10.0 mi WSW 8.1 mph - N/A   Clear
12:35 PM 67.3 °F 37.4 °F 33% 30.06 in 10.0 mi WSW 6.9 mph - N/A   Clear
12:55 PM 67.6 °F 37.6 °F 33% 30.05 in 10.0 mi SW 8.1 mph - N/A   Clear
1:15 PM 68.9 °F 38.3 °F 33% 30.05 in 10.0 mi SW 10.4 mph - N/A   Clear
1:35 PM 69.1 °F 37.4 °F 31% 30.05 in 10.0 mi WSW 5.8 mph - N/A   Clear
1:55 PM 70.2 °F 38.5 °F 31% 30.05 in 10.0 mi West 10.4 mph - N/A   Clear
2:15 PM 70.7 °F 39.4 °F 32% 30.04 in 10.0 mi WNW 9.2 mph - N/A   Clear
2:35 PM 70.5 °F 37.6 °F 30% 30.03 in 10.0 mi West 8.1 mph - N/A   Clear
2:55 PM 70.9 °F 37.4 °F 29% 30.02 in 10.0 mi West 8.1 mph - N/A   Clear
3:15 PM 70.9 °F 36.9 °F 29% 30.02 in 10.0 mi WNW 11.5 mph - N/A   Scattered Clouds
3:35 PM 70.2 °F 35.4 °F 28% 30.02 in 10.0 mi NW 10.4 mph 16.1 mph N/A   Mostly Cloudy
3:55 PM 69.6 °F 35.4 °F 28% 30.01 in 10.0 mi WNW 6.9 mph 16.1 mph N/A   Mostly Cloudy
4:15 PM 68.9 °F 36.3 °F 30% 30.01 in 10.0 mi WNW 9.2 mph - N/A   Overcast
4:35 PM 67.5 °F 37.2 °F 33% 30.02 in 10.0 mi West 10.4 mph - N/A   Overcast
4:55 PM 65.3 °F 38.5 °F 37% 30.05 in 10.0 mi WNW 9.2 mph - N/A Rain Light Rain
5:15 PM 62.6 °F 41.7 °F 46% 30.06 in 10.0 mi West 10.4 mph - N/A Rain Light Rain
5:35 PM 60.3 °F 45.5 °F 58% 30.06 in 10.0 mi NW 5.8 mph - N/A Rain Light Rain
5:55 PM 61.2 °F 46.9 °F 60% 30.04 in 10.0 mi Calm Calm - N/A   Overcast
6:15 PM 60.8 °F 47.5 °F 62% 30.03 in 10.0 mi Calm Calm - N/A   Overcast
6:35 PM 59.9 °F 51.4 °F 74% 30.03 in 10.0 mi Calm Calm - N/A   Overcast
6:55 PM 59.4 °F 50.4 °F 72% 30.02 in 10.0 mi North 3.5 mph - N/A   Overcast
7:15 PM 58.8 °F 49.5 °F 71% 30.03 in 10.0 mi North 3.5 mph - N/A   Overcast
7:35 PM 58.5 °F 47.7 °F 67% 30.04 in 10.0 mi NNW 9.2 mph - N/A   Overcast
7:55 PM 57.7 °F 45.9 °F 65% 30.04 in 10.0 mi North 11.5 mph - N/A   Overcast
8:15 PM 57.2 °F 45.9 °F 66% 30.04 in 10.0 mi North 13.8 mph - N/A   Overcast
8:35 PM 56.3 °F 45.7 °F 68% 30.03 in 10.0 mi North 13.8 mph 18.4 mph N/A   Overcast
8:55 PM 56.1 °F 44.8 °F 66% 30.04 in 10.0 mi North 12.7 mph - N/A   Overcast
9:15 PM 55.4 °F 45.0 °F 68% 30.02 in 10.0 mi NNE 10.4 mph - N/A   Mostly Cloudy
9:35 PM 54.5 °F 45.3 °F 71% 30.03 in 10.0 mi NNE 5.8 mph - N/A   Scattered Clouds
9:55 PM 54.0 °F 44.6 °F 71% 30.02 in 10.0 mi NNE 4.6 mph - N/A   Clear
10:15 PM 52.7 °F 45.1 °F 75% 30.02 in 10.0 mi NE 5.8 mph - N/A   Scattered Clouds
10:35 PM 52.7 °F 44.8 °F 74% 30.02 in 10.0 mi NE 4.6 mph - N/A   Scattered Clouds
10:55 PM 52.5 °F 44.4 °F 74% 30.03 in 10.0 mi North 3.5 mph - N/A   Scattered Clouds
11:15 PM 53.1 °F 44.8 °F 73% 30.04 in 10.0 mi Calm Calm - N/A   Mostly Cloudy
11:35 PM 53.6 °F 45.1 °F 73% 30.05 in 10.0 mi North 3.5 mph - N/A   Overcast
11:55 PM 54.0 °F 45.0 °F 72% 30.04 in 10.0 mi ENE 5.8 mph - N/A   Mostly Cloudy